Regional Weather Roundup
Issued by NWS Sterling, VA

Home | Current Version | Previous Version | Graphics & Text | Print | Product List | Glossary On
Versions: 1 2 3 4 5 6 7 8 9 10 11 12 13 14 15 16 17 18 19 20 21 22 23 24 25 26 27
000
ASUS41 KLWX 281111
RWRLWX

REGIONAL WEATHER ROUNDUP
NATIONAL WEATHER SERVICE BALTIMORE MD/WASHINGTON DC
700 AM EDT WED SEP 28 2016

Note: "FAIR" indicates few or no clouds below 12,000 feet
with no significant weather and/or obstructions to visibility.
 TC=TEMPERATURE CELSIUS

 * =Non NWS site. Station does not report precipitation (e.g. rain,
    snow, etc.), thunder, or fog.

DCZ001-MDZ009-015-VAZ040>042-051-053>054-281200-
WASHINGTON METRO

CITY           SKY/WX    TMP DP  RH WIND       PRES   REMARKS
WASHINGTON NAT LGT RAIN  66  65  96 NE9       29.96S
DULLES         CLOUDY    63  61  93 E8        29.95F
ANDREWS AFB    CLOUDY    64  63  94 E12       29.95S
FT BELVOIR     LGT RAIN  64  63  94 VRB2      29.95R
QUANTICO       TSTM      68  64  88 E14G21    29.94S FOG
COLLEGE PARK*  CLOUDY    63  61  94 NE5       29.96S
LEESBURG*      CLOUDY    63  63 100 NE3       29.97F
MANASSAS*      LGT RAIN  66  66 100 NE5       29.94F FOG
GAITHERSBURG*  CLOUDY    61  57  88 E5        30.01S VSB 1

$$

MDZ006>007-011-014-281200-
BALTIMORE METRO

CITY           SKY/WX    TMP DP  RH WIND       PRES   REMARKS
BWI AIRPORT    CLOUDY    63  62  97 NE9       29.98S FOG
MD SCIENCE CTR   N/A     63  59  87 MISG      29.99S
MARTIN STATE   PTCLDY    61  61 100 CALM      30.00R
ANNAPOLIS      CLOUDY    67  64  90 E8        29.97S
FORT MEADE*    CLOUDY    63  61  94 NE5       29.99F

$$

MDZ012-015-019>023-281200-
MARYLAND EASTERN SHORE

CITY           SKY/WX    TMP DP  RH WIND       PRES   REMARKS
OCEAN CITY     CLOUDY    72  65  78 NE10      29.97R
SALISBURY      MOCLDY    66  65  96 NE5       29.97R
BAY BRIDGE AP* CLOUDY    63  63 100 MISG      29.98R FOG
CAMBRIDGE*     PTCLDY    63  61  94 NE5       29.96S
EASTON*        MOCLDY    63  59  88 NE7       30.01R FOG

$$

MDZ017>025-281200-
SOUTHERN MARYLAND

CITY           SKY/WX    TMP DP  RH WIND       PRES   REMARKS
PATUXENT RIVER LGT RAIN  68  65  90 E15       29.94S
ST INIGOES     NOT AVBL
LEONARDTOWN*   CLOUDY    66  64  94 E7        29.96S

$$

MDZ003>005-281200-
NORTH CENTRAL MARYLAND

CITY           SKY/WX    TMP DP  RH WIND       PRES   REMARKS
FREDERICK*     CLOUDY    61  61 100 MISG      30.01  FOG
HAGERSTOWN APT CLOUDY    59  52  77 N7        29.99R

$$

MDZ501>502-281200-
WESTERN MARYLAND

CITY           SKY/WX    TMP DP  RH WIND       PRES   REMARKS
OAKLAND*       CLEAR     50  37  62 SE7       29.99F
CUMBERLAND*    CLOUDY    48  46  93 CALM      30.04S

$$

VAZ025>031-281200-
SHENANDOAH VALLEY

CITY           SKY/WX    TMP DP  RH WIND       PRES   REMARKS
WINCHESTER*    CLOUDY    61  59  94 NW5       29.97S FOG
FRONT ROYAL*   CLOUDY    59  59 100 N3        29.95S
LURAY*         FOG      N/A N/A N/A NE3       29.96S VSB 1/4
NEW MARKET*    CLOUDY   N/A N/A N/A CALM      29.96S
STAUNTON*      CLOUDY    59  56  91 CALM      29.98R
WAYNESBORO*    CLOUDY    60  56  85 CALM      29.97R

$$

WVZ021-048>050-054>055-281200-
EASTERN WEST VIRGINIA PANHANDLE

CITY           SKY/WX    TMP DP  RH WIND       PRES   REMARKS
MARTINSBURG    LGT RAIN  58  56  93 N6        29.97R FOG
PETERSBURG*    PTCLDY    42  42  97 CALM      30.00R

$$

VAZ036>039-050-281200-
CENTRAL FOOTHILLS

CITY           SKY/WX    TMP DP  RH WIND       PRES   REMARKS
CHARLOTTESVILL FOG       66  64  93 NE8       29.94R VSB 1
CULPEPER*      LGT RAIN  65  65 100 CALM      29.96S
ORANGE*          N/A     64  64 100 CALM      29.96S
GORDONSVILLE*  CLOUDY    64  64 100 CALM      29.94R
WARRENTON*     CLOUDY    66  62  86 NE6       29.95R FOG

$$

VAZ055>057-281200-
NORTH AND CENTRAL PIEDMONT

CITY           SKY/WX    TMP DP  RH WIND       PRES   REMARKS
FREDERICKSBRG* HVY RAIN  66  66 100 N8        29.93S
STAFFORD*      RAIN      65  65 100 NE5       29.98R

$$

NCZ024-NYZ072-PAZ021-071-VAZ022-071-281200-
OTHER REGIONAL OBSERVATIONS

CITY           SKY/WX    TMP DP  RH WIND       PRES   REMARKS
NEW YORK CITY  PTCLDY    61  56  83 NE3       30.08R
PHILADELPHIA   MOCLDY    59  57  93 NE8       30.02R
PITTSBURGH     PTCLDY    49  45  86 SE3       29.94R
ROANOKE        MOCLDY    61  53  75 NE3       29.97R
RICHMOND       CLOUDY    68  67  96 VRB3      29.93R
RALEIGH        CLOUDY    70  68  93 S3        29.93R

$$

ANZ530>537-281200-
MARINE OBSERVATIONS

STATION/POSITION TIME  TEMP    WIND        PRES
                       AIR SEA DIR/SP/G
                 (UTC) (F)     (DEG/KT/KT) (MB)
THOMAS PT LIGHT  1100   65 74   70/ 14/ 16 1016.0F
BALT KEY BRIDGE  1048   64      30/  5/  5 1015.2R
COVE POINT       1048   67     120/ 13/ 18 1014.5F
LEWISETTA        1048   72 73  100/ 15/ 18 1013.1S
SOLOMONS ISLAND  1048   69 75   80/ 13/ 15   N/A
PINEY POINT      1042          100/ 14/ 17   N/A

$$





USA.gov is the U.S. government's official web portal to all federal, state and local government web resources and services.